KF0EZB Weather Reports


Display with metric or nautical units.
time (UTC)temp
F
wind
direction
speed
MPH
gust
MPH
rain 1hr
in
rain 24hr
in
rain mn
in
humidity
%
barometer
mb
20260510063514 57 106 1.0 1.0 0.00 0.00 0.00 73 1016.4
20260510063011 57 68 2.0 2.0 0.00 0.00 0.00 73 1016.2
20260510062506 57 31 5.0 7.0 0.00 0.00 0.00 73 1015.9
20260510062002 57 78 1.0 3.0 0.00 0.00 0.00 74 1015.9
20260510061459 57 72 1.0 5.0 0.00 0.00 0.00 74 1015.8
20260510060955 57 34 2.0 6.0 0.00 0.00 0.00 74 1015.7
20260510060452 57 68 0.0 3.0 0.00 0.00 0.00 75 1015.8
20260510055948 57 60 1.0 3.0 0.00 0.00 0.00 76 1015.5
20260510055444 57 89 0.0 5.0 0.00 0.00 0.00 77 1015.2
20260510054943 57 92 1.0 2.0 0.00 0.00 0.00 77 1015.2
20260510054437 57 38 4.0 5.0 0.00 0.00 0.00 78 1015.1
20260510053932 58 115 0.0 0.0 0.00 0.00 0.00 77 1015.0
20260510053428 58 102 2.0 2.0 0.00 0.00 0.00 77 1014.8
20260510052925 59 94 1.0 2.0 0.00 0.00 0.00 76 1014.6
20260510052420 59 82 1.0 5.0 0.00 0.00 0.00 76 1014.5
20260510051917 59 91 2.0 3.0 0.00 0.00 0.00 76 1014.3
20260510051414 60 77 1.0 2.0 0.00 0.00 0.00 76 1014.3
20260510050910 60 80 1.0 2.0 0.00 0.00 0.00 75 1014.3
20260510050407 60 89 1.0 5.0 0.00 0.00 0.00 75 1014.3
20260510045904 60 74 2.0 2.0 0.00 0.00 0.00 75 1014.3
20260510045401 60 91 1.0 2.0 0.00 0.00 0.00 76 1014.4
20260510044858 60 103 0.0 3.0 0.00 0.00 0.00 76 1014.2
20260510044355 60 108 2.0 3.0 0.00 0.00 0.00 76 1013.7
20260510043851 60 97 2.0 3.0 0.00 0.00 0.00 76 1014.3
20260510043347 60 79 2.0 3.0 0.00 0.00 0.00 76 1014.1
20260510042845 60 102 2.0 7.0 0.00 0.00 0.00 76 1014.1
20260510042341 60 99 1.0 3.0 0.00 0.00 0.00 77 1013.8
20260510041837 60 73 2.0 3.0 0.00 0.00 0.00 76 1013.7
20260510041334 60 73 2.0 3.0 0.00 0.00 0.00 76 1013.5
20260510040832 60 81 1.0 3.0 0.00 0.00 0.00 75 1013.7
20260510040328 60 56 1.0 2.0 0.00 0.00 0.00 74 1013.8
20260510035824 60 87 2.0 5.0 0.00 0.00 0.00 73 1013.8
20260510035320 61 92 1.0 2.0 0.00 0.00 0.00 72 1013.4
20260510034816 61 94 2.0 3.0 0.00 0.00 0.00 72 1013.0
20260510034314 61 83 2.0 6.0 0.00 0.00 0.00 71 1013.0
20260510033810 61 40 3.0 5.0 0.00 0.00 0.00 71 1012.9
20260510033307 61 78 5.0 7.0 0.00 0.00 0.00 72 1012.6
20260510032804 60 84 1.0 3.0 0.00 0.00 0.00 73 1012.6
20260510032300 61 76 2.0 5.0 0.00 0.00 0.00 73 1012.3
20260510031756 61 77 1.0 3.0 0.00 0.00 0.00 72 1012.0
20260510031251 62 88 3.0 5.0 0.00 0.00 0.00 71 1011.6
20260510030745 62 109 0.0 5.0 0.00 0.00 0.00 70 1011.5
20260510030243 62 66 0.0 9.0 0.00 0.00 0.00 70 1011.4
20260510025740 62 89 0.0 6.0 0.00 0.00 0.00 69 1011.2
20260510025238 62 109 0.0 1.0 0.00 0.00 0.00 69 1011.1
20260510024734 63 76 0.0 2.0 0.00 0.00 0.00 68 1010.9
20260510024230 63 96 0.0 3.0 0.00 0.00 0.00 67 1011.1
20260510023726 64 61 0.0 2.0 0.00 0.00 0.00 65 1011.0
20260510023224 64 83 3.0 8.0 0.00 0.00 0.00 64 1010.8
20260510022720 65 49 1.0 3.0 0.00 0.00 0.00 62 1010.5
20260510022220 66 83 4.0 8.0 0.00 0.00 0.00 60 1010.4
20260510021715 66 74 1.0 8.0 0.00 0.00 0.00 59 1010.5
20260510021213 66 85 7.0 13.0 0.00 0.00 0.00 58 1010.2
20260510020708 67 90 6.0 11.0 0.00 0.00 0.00 57 1010.0
20260510020203 67 109 5.0 10.0 0.00 0.00 0.00 57 1009.8
20260510015659 67 82 9.0 14.0 0.00 0.00 0.00 56 1009.6
20260510015156 68 107 8.0 13.0 0.00 0.00 0.00 55 1009.2
20260510014656 68 86 11.0 18.0 0.00 0.00 0.00 54 1009.0
20260510014153 69 82 6.0 13.0 0.00 0.00 0.00 53 1009.1
20260510013648 69 80 10.0 15.0 0.00 0.00 0.00 53 1008.9
20260510013144 69 79 7.0 14.0 0.00 0.00 0.00 55 1008.8
20260510012644 69 84 7.0 10.0 0.00 0.00 0.00 54 1008.8
20260510012140 70 91 5.0 10.0 0.00 0.00 0.00 53 1008.5
20260510011635 71 65 7.0 16.0 0.00 0.00 0.00 50 1008.6
20260510011131 71 98 10.0 17.0 0.00 0.00 0.00 49 1008.7
20260510010627 72 110 9.0 17.0 0.00 0.00 0.00 49 1008.7
20260510010124 73 86 10.0 15.0 0.00 0.00 0.00 46 1008.3
20260510005619 73 87 9.0 10.0 0.00 0.00 0.00 48 1008.1
20260510005117 73 74 7.0 9.0 0.00 0.00 0.00 47 1008.1
20260510004615 73 38 7.0 11.0 0.00 0.00 0.00 48 1008.2
20260510004113 74 60 4.0 8.0 0.00 0.00 0.00 48 1008.2
20260510003610 76 62 3.0 13.0 0.00 0.00 0.00 42 1008.3
20260510003106 77 91 9.0 16.0 0.00 0.00 0.00 37 1008.5
20260510002600 77 77 5.0 7.0 0.00 0.00 0.00 37 1008.3
20260510002057 77 100 0.0 2.0 0.00 0.00 0.00 36 1008.0
20260510001555 77 113 5.0 7.0 0.00 0.00 0.00 37 1007.6
20260510001054 78 91 2.0 6.0 0.00 0.00 0.00 37 1007.5
20260510000548 78 141 2.0 6.0 0.00 0.00 0.00 36 1007.1
20260510000046 79 126 4.0 10.0 0.00 0.00 0.00 36 1007.4
20260509235542 79 142 0.0 6.0 0.00 0.00 0.00 38 1007.2
20260509235038 78 156 1.0 2.0 0.00 0.00 0.00 38 1007.8
20260509234534 78 117 0.0 2.0 0.00 0.00 0.00 38 1007.2
20260509234033 77 171 1.0 5.0 0.00 0.00 0.00 38 1006.9
20260509233530 78 134 2.0 8.0 0.00 0.00 0.00 39 1007.0
20260509233027 79 182 2.0 5.0 0.00 0.00 0.00 37 1007.2
20260509232524 80 174 2.0 3.0 0.00 0.00 0.00 35 1007.3
20260509232020 81 243 2.0 2.0 0.00 0.00 0.00 32 1007.2
20260509231517 82 213 5.0 13.0 0.00 0.00 0.00 32 1006.9
20260509231015 83 136 2.0 3.0 0.00 0.00 0.00 27 1007.2
20260509230511 82 133 4.0 6.0 0.00 0.00 0.00 26 1006.5
20260509230008 81 179 1.0 9.0 0.00 0.00 0.00 27 1006.3
20260509225503 82 121 3.0 5.0 0.00 0.00 0.00 26 1006.2
20260509224959 82 137 1.0 6.0 0.00 0.00 0.00 26 1005.9
20260509224455 82 82 2.0 5.0 0.00 0.00 0.00 26 1006.1
20260509223952 82 126 2.0 3.0 0.00 0.00 0.00 26 1006.0
20260509223449 83 121 2.0 3.0 0.00 0.00 0.00 25 1006.2
20260509222946 84 97 2.0 6.0 0.00 0.00 0.00 25 1006.2
20260509222442 84 173 5.0 8.0 0.00 0.00 0.00 24 1006.0
20260509221938 84 139 2.0 6.0 0.00 0.00 0.00 24 1006.4
20260509221434 84 137 2.0 7.0 0.00 0.00 0.00 24 1006.3
20260509220930 85 131 1.0 6.0 0.00 0.00 0.00 24 1006.3
20260509220426 86 142 2.0 7.0 0.00 0.00 0.00 23 1006.4
20260509215923 88 161 3.0 5.0 0.00 0.00 0.00 21 1006.5
20260509215418 89 164 1.0 6.0 0.00 0.00 0.00 21 1006.7
20260509214916 89 96 1.0 7.0 0.00 0.00 0.00 22 1006.9
20260509214413 89 173 3.0 5.0 0.00 0.00 0.00 21 1006.9
20260509213910 88 132 0.0 5.0 0.00 0.00 0.00 21 1007.0
20260509213405 85 125 2.0 6.0 0.00 0.00 0.00 23 1007.1
20260509212903 85 125 1.0 2.0 0.00 0.00 0.00 22 1007.2
20260509212400 85 195 0.0 3.0 0.00 0.00 0.00 22 1007.4
20260509211856 86 130 1.0 3.0 0.00 0.00 0.00 22 1007.4
20260509211352 86 137 2.0 6.0 0.00 0.00 0.00 21 1007.3
20260509210849 87 160 2.0 3.0 0.00 0.00 0.00 21 1007.5
20260509210346 89 232 0.0 5.0 0.00 0.00 0.00 20 1007.3
20260509205846 88 256 5.0 7.0 0.00 0.00 0.00 20 1007.6
20260509205341 89 187 4.0 8.0 0.00 0.00 0.00 20 1007.8
20260509204838 89 193 2.0 5.0 0.00 0.00 0.00 20 1007.8
20260509204334 88 205 2.0 3.0 0.00 0.00 0.00 20 1007.9
20260509203830 89 185 3.0 6.0 0.00 0.00 0.00 20 1008.1
20260509203327 88 102 5.0 7.0 0.00 0.00 0.00 20 1008.2
20260509202823 87 215 2.0 5.0 0.00 0.00 0.00 21 1008.1
20260509202320 87 186 1.0 5.0 0.00 0.00 0.00 21 1008.1
20260509201819 87 199 3.0 3.0 0.00 0.00 0.00 20 1008.3
20260509201316 88 195 2.0 5.0 0.00 0.00 0.00 20 1008.3
20260509200812 88 66 2.0 5.0 0.00 0.00 0.00 20 1008.1
20260509200308 87 147 3.0 7.0 0.00 0.00 0.00 19 1008.1
20260509195804 87 143 4.0 6.0 0.00 0.00 0.00 20 1008.3
20260509195300 88 128 4.0 6.0 0.00 0.00 0.00 19 1008.1
20260509194759 88 118 3.0 9.0 0.00 0.00 0.00 20 1008.6
20260509194255 88 150 1.0 6.0 0.00 0.00 0.00 19 1008.5
20260509193753 88 202 4.0 8.0 0.00 0.00 0.00 19 1008.2
20260509193253 88 118 2.0 3.0 0.00 0.00 0.00 21 1008.3
20260509192749 87 171 1.0 11.0 0.00 0.00 0.00 22 1008.3
20260509192244 87 176 2.0 8.0 0.00 0.00 0.00 23 1008.3
20260509191739 87 131 2.0 6.0 0.00 0.00 0.00 22 1008.5
20260509191236 88 163 1.0 5.0 0.00 0.00 0.00 20 1008.6
20260509190732 87 104 1.0 5.0 0.00 0.00 0.00 22 1008.8
20260509190229 88 340 3.0 8.0 0.00 0.00 0.00 22 1009.1
20260509185727 87 164 3.0 9.0 0.00 0.00 0.00 22 1008.9
20260509185223 86 97 3.0 7.0 0.00 0.00 0.00 21 1008.9
20260509184721 87 184 1.0 5.0 0.00 0.00 0.00 21 1009.0
20260509184218 86 252 2.0 3.0 0.00 0.00 0.00 21 1009.1
20260509183714 85 200 1.0 5.0 0.00 0.00 0.00 21 1009.1
20260509183209 85 220 4.0 7.0 0.00 0.00 0.00 20 1009.2
20260509182705 86 295 4.0 6.0 0.00 0.00 0.00 20 1009.3
20260509182203 85 73 3.0 9.0 0.00 0.00 0.00 21 1009.4
20260509181700 85 182 1.0 5.0 0.00 0.00 0.00 23 1009.5
20260509181158 85 139 2.0 6.0 0.00 0.00 0.00 22 1009.6
20260509180654 85 146 1.0 2.0 0.00 0.00 0.00 23 1009.6
20260509180150 84 238 3.0 8.0 0.00 0.00 0.00 25 1009.6
20260509175646 83 169 1.0 6.0 0.00 0.00 0.00 26 1009.8
20260509175144 84 153 1.0 5.0 0.00 0.00 0.00 26 1010.2
20260509174639 84 170 1.0 7.0 0.00 0.00 0.00 26 1010.3
20260509174134 83 224 3.0 5.0 0.00 0.00 0.00 27 1010.0
20260509173630 83 221 2.0 6.0 0.00 0.00 0.00 27 1010.3
20260509173126 82 169 1.0 3.0 0.00 0.00 0.00 30 1010.3
20260509172623 81 185 1.0 2.0 0.00 0.00 0.00 30 1010.6
20260509172119 80 225 2.0 6.0 0.00 0.00 0.00 31 1010.7
20260509171615 79 182 2.0 5.0 0.00 0.00 0.00 31 1010.7
20260509171111 79 195 2.0 3.0 0.00 0.00 0.00 32 1010.9
20260509170608 78 259 2.0 2.0 0.00 0.00 0.00 34 1010.9
20260509170104 77 212 1.0 5.0 0.00 0.00 0.00 34 1010.9
20260509165602 78 219 1.0 5.0 0.00 0.00 0.00 33 1011.1
20260509165058 78 258 2.0 10.0 0.00 0.00 0.00 33 1011.0
20260509164554 79 298 1.0 7.0 0.00 0.00 0.00 33 1011.2
20260509164050 77 211 1.0 3.0 0.00 0.00 0.00 35 1011.3
20260509163549 75 154 2.0 2.0 0.00 0.00 0.00 36 1011.2
20260509163044 74 158 1.0 2.0 0.00 0.00 0.00 37 1011.2
20260509162541 74 184 1.0 2.0 0.00 0.00 0.00 37 1011.3
20260509162036 74 278 4.0 5.0 0.00 0.00 0.00 37 1011.4
20260509161533 74 249 3.0 6.0 0.00 0.00 0.00 37 1011.5
20260509161028 74 258 4.0 7.0 0.00 0.00 0.00 38 1011.6
20260509160524 74 206 2.0 5.0 0.00 0.00 0.00 39 1011.6
20260509160020 74 247 2.0 5.0 0.00 0.00 0.00 40 1011.3
20260509155516 73 231 1.0 3.0 0.00 0.00 0.00 40 1011.6
20260509155012 73 231 1.0 3.0 0.00 0.00 0.00 40 1011.6
20260509154509 73 236 3.0 5.0 0.00 0.00 0.00 41 1011.4
20260509154007 73 191 1.0 2.0 0.00 0.00 0.00 42 1011.4
20260509153503 72 172 1.0 2.0 0.00 0.00 0.00 42 1011.4
20260509153000 72 174 1.0 3.0 0.00 0.00 0.00 42 1011.4
20260509152455 71 190 2.0 3.0 0.00 0.00 0.00 42 1011.6
20260509151952 71 250 2.0 6.0 0.00 0.00 0.00 42 1011.5
20260509151449 71 169 1.0 3.0 0.00 0.00 0.00 43 1011.4
20260509150947 71 174 1.0 2.0 0.00 0.00 0.00 44 1011.6
20260509150444 70 164 0.0 1.0 0.00 0.00 0.00 45 1011.2
20260509145942 70 205 2.0 3.0 0.00 0.00 0.00 44 1011.5
20260509145437 70 245 1.0 2.0 0.00 0.00 0.00 44 1011.7
20260509144933 70 195 1.0 5.0 0.00 0.00 0.00 43 1011.6
20260509144430 70 186 2.0 6.0 0.00 0.00 0.00 43 1011.5
20260509143927 70 244 5.0 9.0 0.00 0.00 0.00 42 1011.5
20260509143424 70 219 2.0 5.0 0.00 0.00 0.00 42 1011.2
20260509142920 70 222 2.0 7.0 0.00 0.00 0.00 43 1011.1
20260509142417 70 279 2.0 5.0 0.00 0.00 0.00 43 1011.2
20260509141913 69 247 2.0 5.0 0.00 0.00 0.00 44 1011.1
20260509141410 69 256 3.0 5.0 0.00 0.00 0.00 44 1011.2
20260509140907 68 218 1.0 3.0 0.00 0.00 0.00 46 1011.1
20260509140403 68 256 3.0 5.0 0.00 0.00 0.00 47 1011.2
20260509135901 68 251 2.0 5.0 0.00 0.00 0.00 47 1011.0
20260509135358 68 220 2.0 5.0 0.00 0.00 0.00 49 1010.9
20260509134856 67 258 0.0 2.0 0.00 0.00 0.00 50 1011.0
20260509134353 67 198 0.0 3.0 0.00 0.00 0.00 50 1010.9
20260509133850 66 134 3.0 6.0 0.00 0.00 0.00 50 1011.0
20260509133346 65 279 0.0 0.0 0.00 0.00 0.00 52 1011.2
20260509132845 65 216 2.0 3.0 0.00 0.00 0.00 54 1010.9
20260509132343 64 194 1.0 5.0 0.00 0.00 0.00 55 1010.9
20260509131840 63 197 1.0 3.0 0.00 0.00 0.00 56 1010.6
20260509131336 62 184 0.0 0.0 0.00 0.00 0.00 57 1010.8
20260509130833 61 189 0.0 3.0 0.00 0.00 0.00 59 1010.8
20260509130329 61 180 1.0 1.0 0.00 0.00 0.00 58 1010.6
20260509125826 61 172 0.0 0.0 0.00 0.00 0.00 58 1010.6
20260509125322 61 163 0.0 0.0 0.00 0.00 0.00 59 1011.0
20260509124818 60 207 0.0 0.0 0.00 0.00 0.00 60 1010.8
20260509124315 59 248 1.0 2.0 0.00 0.00 0.00 61 1010.5
20260509123814 59 238 0.0 5.0 0.00 0.00 0.00 60 1010.7
20260509123310 58 236 1.0 3.0 0.00 0.00 0.00 60 1010.7
20260509122806 58 192 0.0 1.0 0.00 0.00 0.00 60 1010.5
20260509122306 57 188 0.0 1.0 0.00 0.00 0.00 61 1010.5
20260509121800 56 197 0.0 1.0 0.00 0.00 0.00 62 1010.6
20260509121257 55 209 0.0 2.0 0.00 0.00 0.00 63 1010.5
20260509120755 54 235 2.0 5.0 0.00 0.00 0.00 64 1010.4
20260509120253 54 191 0.0 0.0 0.00 0.00 0.00 64 1010.4
20260509115751 53 208 1.0 1.0 0.00 0.00 0.00 64 1010.4
20260509115247 53 227 0.0 2.0 0.00 0.00 0.00 64 1010.5
20260509114745 53 213 0.0 1.0 0.00 0.00 0.00 65 1010.4
20260509114244 52 191 0.0 2.0 0.00 0.00 0.00 66 1010.5
20260509113742 52 224 0.0 2.0 0.00 0.00 0.00 65 1010.5
20260509113239 52 203 1.0 2.0 0.00 0.00 0.00 65 1010.4
20260509112736 52 203 1.0 2.0 0.00 0.00 0.00 65 1010.3
20260509112233 52 246 0.0 3.0 0.00 0.00 0.00 65 1010.5
20260509111730 51 201 1.0 2.0 0.00 0.00 0.00 66 1010.2
20260509111227 51 185 1.0 2.0 0.00 0.00 0.00 66 1010.3
20260509110724 51 187 1.0 2.0 0.00 0.00 0.00 66 1010.4
20260509110221 51 192 1.0 2.0 0.00 0.00 0.00 66 1010.4
20260509105719 51 203 1.0 3.0 0.00 0.00 0.00 66 1010.7
20260509105216 51 214 1.0 2.0 0.00 0.00 0.00 66 1010.3
20260509104713 51 177 0.0 2.0 0.00 0.00 0.00 66 1010.4
20260509104210 51 179 0.0 0.0 0.00 0.00 0.00 66 1010.5
20260509103708 51 181 0.0 1.0 0.00 0.00 0.00 65 1010.3
20260509103205 51 188 0.0 1.0 0.00 0.00 0.00 65 1010.4
20260509102704 52 203 1.0 1.0 0.00 0.00 0.00 65 1010.6
20260509102200 51 182 0.0 1.0 0.00 0.00 0.00 65 1010.6
20260509101656 52 188 1.0 1.0 0.00 0.00 0.00 65 1010.4
20260509101153 51 197 0.0 2.0 0.00 0.00 0.00 65 1010.4
20260509100650 51 229 1.0 3.0 0.00 0.00 0.00 65 1010.6
20260509100147 51 200 1.0 2.0 0.00 0.00 0.00 65 1010.6
20260509095644 51 207 1.0 2.0 0.00 0.00 0.00 65 1010.5
20260509095141 52 232 1.0 2.0 0.00 0.00 0.00 64 1010.5
20260509094637 51 256 1.0 6.0 0.00 0.00 0.00 64 1010.3
20260509094135 52 177 0.0 2.0 0.00 0.00 0.00 64 1010.5
20260509093633 52 184 2.0 2.0 0.00 0.00 0.00 64 1010.6
20260509093130 52 176 1.0 1.0 0.00 0.00 0.00 64 1010.7
20260509092628 52 177 1.0 2.0 0.00 0.00 0.00 64 1010.3
20260509092126 51 188 0.0 3.0 0.00 0.00 0.00 64 1010.6
20260509091624 51 177 0.0 2.0 0.00 0.00 0.00 64 1010.6
20260509091120 51 176 0.0 2.0 0.00 0.00 0.00 65 1010.6
20260509090618 51 174 0.0 1.0 0.00 0.00 0.00 65 1010.4
20260509090115 51 173 1.0 1.0 0.00 0.00 0.00 65 1010.4
20260509085612 51 174 0.0 1.0 0.00 0.00 0.00 65 1010.2
20260509085108 51 174 1.0 1.0 0.00 0.00 0.00 64 1010.3
20260509084605 51 175 0.0 0.0 0.00 0.00 0.00 64 1010.6
20260509084102 52 175 0.0 0.0 0.00 0.00 0.00 64 1010.7
20260509083600 52 177 0.0 0.0 0.00 0.00 0.00 63 1010.4
20260509083056 52 180 0.0 0.0 0.00 0.00 0.00 63 1010.4
20260509082553 52 180 1.0 2.0 0.00 0.00 0.00 62 1010.5
20260509082050 52 180 0.0 0.0 0.00 0.00 0.00 62 1010.5
20260509081547 53 181 0.0 2.0 0.00 0.00 0.00 62 1010.5
20260509081044 53 195 0.0 2.0 0.00 0.00 0.00 61 1010.6
20260509080542 53 189 0.0 2.0 0.00 0.00 0.00 61 1010.7
20260509080040 53 183 1.0 2.0 0.00 0.00 0.00 62 1010.7
20260509075537 53 189 0.0 2.0 0.00 0.00 0.00 61 1010.8
20260509075035 53 194 1.0 2.0 0.00 0.00 0.00 61 1010.9
20260509074532 53 197 0.0 0.0 0.00 0.00 0.00 61 1010.8
20260509074028 53 196 0.0 1.0 0.00 0.00 0.00 61 1010.7
20260509073525 53 179 0.0 1.0 0.00 0.00 0.00 61 1010.9
20260509073021 53 182 2.0 3.0 0.00 0.00 0.00 62 1011.0
20260509072518 53 188 0.0 0.0 0.00 0.00 0.00 61 1011.0
20260509072015 53 183 1.0 2.0 0.00 0.00 0.00 61 1011.0
20260509071512 53 185 1.0 1.0 0.00 0.00 0.00 61 1011.0
20260509071009 54 227 1.0 2.0 0.00 0.00 0.00 60 1011.0
20260509070506 54 183 1.0 2.0 0.00 0.00 0.00 60 1010.9
20260509070002 54 196 1.0 2.0 0.00 0.00 0.00 59 1010.9
20260509065458 54 186 1.0 1.0 0.00 0.00 0.00 60 1011.0
20260509064954 53 188 1.0 2.0 0.00 0.00 0.00 61 1011.1
20260509064452 53 216 1.0 3.0 0.00 0.00 0.00 62 1010.9
20260509063950 53 181 0.0 2.0 0.00 0.00 0.00 62 1010.9